Погода в Мешхеде

Иран     36°17′57″N   59°35′32″E
темп.,
°C
ветер,
м/с
пор.,
м/с
влажн.,
%
обл.,
%
осадки,
мм/ч
давл.,
гПа
погр.,
м
26 октября, вт
вт2600:30+9ссз11310 0.0 101938
03:30+9сз22320 0.0 102048
06:30+9ссз12370 0.0 102293
09:30+13ссв22310 0.0 1022647
12:30+16всв32240 0.0 10201119
15:30+16вюв542154 0.0 10201237
18:30+11ююв472895 0.0 1023273
21:30+10ю353064 0.0 1024158
27 октября, ср
ср2700:30+9ю343335 0.0 1024156
03:30+8ю233778 0.0 1024122
06:30+7ю234270 0.0 1025128
09:30+10вюв3352100 0.0 1025714
12:30+11всв324699 0.0 10241216
15:30+10ссз554896 0.0 1025764
18:30+8в44566 0.0 1026318
21:30+5юв338398 0.0 1029593
28 октября, чт
чт2800:30+5юв228083 0.1 1028407
03:30+4вюв228083 0.1 1027302
06:30+5вюв227481 0.0 1028453
09:30+7вюв32595 0.0 1027791
12:30+11в33420 0.0 1023883
15:30+11в32429 0.0 1023722
18:30+8ююв45600 0.0 1025255
21:30+6ю35680 0.0 1026225
29 октября, пт
пт2900:30+5юв12650 0.0 1025122
03:30+5с00640 0.0 102483
06:30+6св00560 0.0 102562
09:30+12св11360 0.0 1024415
12:30+15св21280 0.0 1021654
15:30+16св11255 0.0 1021466
18:30+13ю22315 0.0 102349
21:30+12ю123642 0.0 102357
30 октября, сб
сб3000:30+11сз1140100 0.0 102310
03:30+10зсз114156 0.0 102310
06:30+11зюз113798 0.0 102410
09:30+16ссв222788 0.0 1025496
12:30+19всв22225 0.0 1022820
15:30+19вюв45225 0.0 1022588
18:30+13ю57345 0.0 1024197
21:30+12ю35386 0.0 1025141